FW9607 Weather Reports


Display with metric or nautical units.
time (UTC)temp
F
wind
direction
speed
MPH
gust
MPH
rain 1hr
in
rain 24hr
in
rain mn
in
humidity
%
barometer
mb
20240224171645 76 150 5.0 12.0 0.00 0.00 0.00 40 1022.1
20240224171145 76 120 4.0 12.0 0.00 0.00 0.00 40 1022.1
20240224170646 76 110 4.0 9.0 0.00 0.00 0.00 39 1022.1
20240224170143 76 125 4.0 9.0 0.00 0.00 0.00 40 1022.0
20240224165642 75 134 5.0 9.0 0.00 0.00 0.00 40 1022.1
20240224165143 75 124 5.0 13.0 0.00 0.00 0.00 39 1022.2
20240224164643 75 103 5.0 13.0 0.00 0.00 0.00 39 1022.1
20240224164143 75 143 4.0 9.0 0.00 0.00 0.00 42 1022.2
20240224163143 74 108 5.0 11.0 0.00 0.00 0.00 38 1022.2
20240224162143 73 94 6.0 13.0 0.00 0.00 0.00 40 1022.3
20240224161644 72 82 6.0 13.0 0.00 0.00 0.00 41 1022.3
20240224161143 72 77 6.0 11.0 0.00 0.00 0.00 44 1022.2
20240224160643 72 108 5.0 13.0 0.00 0.00 0.00 44 1022.4
20240224160141 71 87 6.0 13.0 0.00 0.00 0.00 47 1022.4
20240224155641 71 70 6.0 13.0 0.00 0.00 0.00 49 1022.2
20240224154641 69 84 5.0 10.0 0.00 0.00 0.00 54 1022.3
20240224154141 69 100 5.0 10.0 0.00 0.00 0.00 55 1022.3
20240224153141 68 149 4.0 8.0 0.00 0.00 0.00 59 1022.2
20240224152641 67 0 4.0 9.0 0.00 0.00 0.00 62 1022.3
20240224152141 66 82 4.0 9.0 0.00 0.00 0.00 63 1022.2
20240224151641 66 87 5.0 9.0 0.00 0.00 0.00 63 1022.1
20240224151141 65 93 4.0 8.0 0.00 0.00 0.00 63 1022.2
20240224150644 64 117 3.0 6.0 0.00 0.00 0.00 66 1022.1
20240224150142 64 40 2.0 4.0 0.00 0.00 0.00 69 1022.0
20240224145642 63 40 2.0 4.0 0.00 0.00 0.00 71 1022.0
20240224144641 61 352 1.0 2.0 0.00 0.00 0.00 75 1022.0
20240224144141 60 0 1.0 2.0 0.00 0.00 0.00 76 1021.9
20240224143641 58 0 1.0 3.0 0.00 0.00 0.00 80 1021.8
20240224142638 56 9 2.0 3.0 0.00 0.00 0.00 84 1021.8
20240224142139 55 345 2.0 3.0 0.00 0.00 0.00 85 1021.7
20240224141639 55 340 1.0 2.0 0.00 0.00 0.00 87 1021.6
20240224140638 53 357 1.0 3.0 0.00 0.00 0.00 89 1021.5
20240224140139 52 0 0.0 3.0 0.00 0.00 0.00 89 1021.5
20240224135639 51 0 1.0 3.0 0.00 0.00 0.00 89 1021.4
20240224135139 51 347 1.0 3.0 0.00 0.00 0.00 90 1021.4
20240224134639 50 343 2.0 4.0 0.00 0.00 0.00 90 1021.3
20240224134139 49 263 2.0 4.0 0.00 0.00 0.00 91 1021.2
20240224133639 49 4 1.0 4.0 0.00 0.00 0.00 92 1021.3
20240224133139 48 0 0.0 2.0 0.00 0.00 0.00 93 1021.3
20240224132647 48 0 0.0 2.0 0.00 0.00 0.00 93 1021.2
20240224132139 48 0 0.0 2.0 0.00 0.00 0.00 93 1021.2
20240224131640 48 0 1.0 3.0 0.00 0.00 0.00 93 1021.1
20240224131137 48 225 1.0 3.0 0.00 0.00 0.00 93 1020.9
20240224130640 49 267 1.0 3.0 0.00 0.00 0.00 94 1020.8
20240224130137 49 0 1.0 3.0 0.00 0.00 0.00 94 1020.7
20240224125638 49 0 0.0 3.0 0.00 0.00 0.00 93 1020.8
20240224125136 49 265 0.0 3.0 0.00 0.00 0.00 94 1020.7
20240224124138 49 49 0.0 3.0 0.00 0.00 0.00 93 1020.6
20240224123637 49 0 0.0 2.0 0.00 0.00 0.00 92 1020.5
20240224123144 50 0 0.0 2.0 0.00 0.00 0.00 92 1020.4
20240224122639 50 0 0.0 2.0 0.00 0.00 0.00 92 1020.2
20240224122140 50 0 0.0 2.0 0.00 0.00 0.00 92 1020.1
20240224121635 50 0 0.0 3.0 0.00 0.00 0.00 90 1020.2
20240224121137 51 309 1.0 4.0 0.00 0.00 0.00 90 1020.1
20240224120635 51 0 2.0 4.0 0.00 0.00 0.00 90 1020.0
20240224120135 50 337 2.0 4.0 0.00 0.00 0.00 91 1020.0
20240224115131 50 9 2.0 4.0 0.00 0.00 0.00 92 1020.0
20240224114632 50 353 1.0 3.0 0.00 0.00 0.00 91 1020.0
20240224113630 50 327 0.0 2.0 0.00 0.00 0.00 91 1019.8
20240224113135 50 0 0.0 2.0 0.00 0.00 0.00 91 1019.7
20240224112632 50 0 1.0 3.0 0.00 0.00 0.00 90 1019.7
20240224112129 50 247 1.0 3.0 0.00 0.00 0.00 90 1019.6
20240224111629 50 318 2.0 4.0 0.00 0.00 0.00 90 1019.6
20240224111131 50 305 2.0 4.0 0.00 0.00 0.00 90 1019.7
20240224110629 50 26 2.0 3.0 0.00 0.00 0.00 90 1019.8
20240224105629 50 337 1.0 3.0 0.00 0.00 0.00 90 1019.7
20240224105129 50 254 1.0 3.0 0.00 0.00 0.00 91 1019.7
20240224104629 50 0 1.0 2.0 0.00 0.00 0.00 90 1019.6
20240224104130 51 0 1.0 2.0 0.00 0.00 0.00 89 1019.5
20240224103627 52 264 1.0 3.0 0.00 0.00 0.00 87 1019.5
20240224103127 53 210 1.0 3.0 0.00 0.00 0.00 86 1019.3
20240224102624 54 230 0.0 3.0 0.00 0.00 0.00 85 1019.2
20240224102124 54 0 1.0 3.0 0.00 0.00 0.00 84 1019.1
20240224101121 54 341 1.0 3.0 0.00 0.00 0.00 84 1018.9
20240224100621 54 26 1.0 3.0 0.00 0.00 0.00 84 1018.8
20240224100125 54 351 2.0 3.0 0.00 0.00 0.00 84 1018.7
20240224095621 54 29 2.0 3.0 0.00 0.00 0.00 84 1018.7
20240224095121 54 16 2.0 3.0 0.00 0.00 0.00 85 1018.8
20240224094621 54 48 2.0 3.0 0.00 0.00 0.00 84 1018.6
20240224093621 54 14 2.0 3.0 0.00 0.00 0.00 84 1018.4
20240224093122 54 73 1.0 3.0 0.00 0.00 0.00 83 1018.4
20240224092623 54 25 1.0 3.0 0.00 0.00 0.00 84 1018.4
20240224092119 54 81 1.0 3.0 0.00 0.00 0.00 84 1018.4
20240224091620 54 16 1.0 3.0 0.00 0.00 0.00 84 1018.3
20240224091123 54 52 1.0 3.0 0.00 0.00 0.00 84 1018.3
20240224090121 54 16 2.0 3.0 0.00 0.00 0.00 85 1018.5
20240224085622 55 34 1.0 3.0 0.00 0.00 0.00 84 1018.5
20240224085121 55 74 1.0 2.0 0.00 0.00 0.00 84 1018.5
20240224084621 55 36 1.0 3.0 0.00 0.00 0.00 84 1018.7
20240224084120 55 286 1.0 3.0 0.00 0.00 0.00 83 1018.6
20240224083621 55 0 1.0 3.0 0.00 0.00 0.00 83 1018.6
20240224083120 55 19 1.0 3.0 0.00 0.00 0.00 83 1018.5
20240224082621 55 12 1.0 3.0 0.00 0.00 0.00 83 1018.5
20240224082120 55 49 1.0 3.0 0.00 0.00 0.00 82 1018.5
20240224081619 55 0 1.0 2.0 0.00 0.00 0.00 82 1018.4
20240224081117 55 4 0.0 2.0 0.00 0.00 0.00 82 1018.5
20240224080617 55 11 0.0 2.0 0.00 0.00 0.00 82 1018.6
20240224080118 55 3 0.0 2.0 0.00 0.00 0.00 82 1018.5
20240224075614 56 20 0.0 2.0 0.00 0.00 0.00 81 1018.5
20240224075112 56 13 1.0 2.0 0.00 0.00 0.00 81 1018.6
20240224074608 55 323 0.0 2.0 0.00 0.00 0.00 82 1018.8
20240224074108 55 0 1.0 2.0 0.00 0.00 0.00 81 1018.7
20240224073616 55 316 1.0 2.0 0.00 0.00 0.00 81 1018.7
20240224072613 55 0 1.0 2.0 0.00 0.00 0.00 82 1018.8
20240224072109 55 267 1.0 2.0 0.00 0.00 0.00 82 1018.8
20240224065109 56 0 0.0 1.0 0.00 0.00 0.00 79 1018.8
20240224064107 57 0 0.0 2.0 0.00 0.00 0.00 78 1018.8
20240224063605 57 236 0.0 2.0 0.00 0.00 0.00 77 1018.9
20240224062603 57 0 0.0 1.0 0.00 0.00 0.00 78 1018.9
20240224062103 57 0 0.0 1.0 0.00 0.00 0.00 78 1018.8
20240224061603 57 0 0.0 1.0 0.00 0.00 0.00 78 1018.8
20240224060606 58 0 0.0 1.0 0.00 0.00 0.00 76 1018.9
20240224055603 58 0 0.0 1.0 0.00 0.00 0.00 75 1018.8
20240224054604 58 0 0.0 1.0 0.00 0.00 0.00 74 1018.9
20240224054104 59 0 0.0 1.0 0.00 0.00 0.00 74 1019.0
20240224053601 58 323 0.0 1.0 0.00 0.00 0.00 74 1018.9
20240224053101 58 329 0.0 2.0 0.00 0.00 0.00 75 1019.0
20240224052058 59 0 0.0 1.0 0.00 0.00 0.00 74 1018.8
20240224051557 59 0 0.0 1.0 0.00 0.00 0.00 73 1019.0
20240224051058 59 0 0.0 0.0 0.00 0.00 0.00 73 1018.9
20240224050558 59 0 0.0 1.0 0.00 0.00 0.00 72 1018.8
20240224050059 60 0 0.0 1.0 0.00 0.00 0.00 72 1019.1
20240224045058 59 0 0.0 1.0 0.00 0.00 0.00 73 1019.2
20240224044558 60 0 0.0 1.0 0.00 0.00 0.00 73 1019.3
20240224044059 60 297 0.0 2.0 0.00 0.00 0.00 72 1019.1
20240224043559 60 0 0.0 2.0 0.00 0.00 0.00 73 1019.0
20240224043059 61 0 0.0 1.0 0.00 0.00 0.00 72 1018.7
20240224042604 61 48 0.0 2.0 0.00 0.00 0.00 71 1018.8
20240224042058 61 262 0.0 2.0 0.00 0.00 0.00 71 1018.9
20240224041558 62 0 0.0 1.0 0.00 0.00 0.00 70 1018.8
20240224041059 62 0 0.0 1.0 0.00 0.00 0.00 69 1018.7
20240224040055 62 0 0.0 2.0 0.00 0.00 0.00 69 1018.7
20240224035555 62 0 0.0 1.0 0.00 0.00 0.00 69 1018.6
20240224035056 62 0 0.0 1.0 0.00 0.00 0.00 70 1018.6
20240224034556 62 0 0.0 1.0 0.00 0.00 0.00 70 1018.6
20240224034056 62 0 0.0 2.0 0.00 0.00 0.00 69 1018.8
20240224033557 62 0 0.0 2.0 0.00 0.00 0.00 69 1018.7
20240224033056 62 0 0.0 1.0 0.00 0.00 0.00 69 1018.4
20240224032054 63 62 0.0 2.0 0.00 0.00 0.00 68 1018.3
20240224031052 63 0 0.0 2.0 0.00 0.00 0.00 67 1018.2
20240224030551 62 0 0.0 1.0 0.00 0.00 0.00 67 1018.1
20240224030052 62 0 0.0 1.0 0.00 0.00 0.00 67 1017.9
20240224025552 63 0 0.0 2.0 0.00 0.00 0.00 67 1017.9
20240224025049 62 0 0.0 2.0 0.00 0.00 0.00 67 1017.9
20240224024549 63 0 0.0 1.0 0.00 0.00 0.00 67 1017.9
20240224024049 63 0 0.0 2.0 0.00 0.00 0.00 67 1017.9
20240224023548 63 0 1.0 2.0 0.00 0.00 0.00 66 1017.7
20240224023050 64 315 1.0 2.0 0.00 0.00 0.00 64 1017.6
20240224022553 65 303 0.0 2.0 0.00 0.00 0.00 63 1017.6
20240224022049 65 296 0.0 1.0 0.00 0.00 0.00 62 1017.4
20240224021549 66 0 0.0 1.0 0.00 0.00 0.00 61 1017.4
20240224021049 66 55 0.0 2.0 0.00 0.00 0.00 60 1017.4
20240224020549 66 0 0.0 4.0 0.00 0.00 0.00 60 1017.4
20240224020050 66 0 1.0 4.0 0.00 0.00 0.00 59 1017.2
20240224015548 67 110 1.0 4.0 0.00 0.00 0.00 59 1017.1
20240224015045 67 140 1.0 3.0 0.00 0.00 0.00 58 1017.0
20240224014544 67 175 1.0 3.0 0.00 0.00 0.00 57 1016.8
20240224014045 67 0 1.0 3.0 0.00 0.00 0.00 57 1016.7
20240224013540 67 0 0.0 3.0 0.00 0.00 0.00 56 1016.7
20240224013041 68 144 1.0 4.0 0.00 0.00 0.00 56 1016.6
20240224012540 68 141 1.0 5.0 0.00 0.00 0.00 55 1016.5
20240224011541 69 133 1.0 4.0 0.00 0.00 0.00 54 1016.5
20240224011042 69 129 1.0 5.0 0.00 0.00 0.00 54 1016.5
20240224010541 70 103 1.0 5.0 0.00 0.00 0.00 54 1016.4
20240224010043 70 180 1.0 5.0 0.00 0.00 0.00 53 1016.2
20240224005541 71 176 2.0 4.0 0.00 0.00 0.00 52 1016.1
20240224005040 71 174 2.0 5.0 0.00 0.00 0.00 51 1016.0
20240224004538 71 109 2.0 5.0 0.00 0.00 0.00 50 1015.9
20240224004040 72 165 2.0 5.0 0.00 0.00 0.00 49 1016.0
20240224003042 74 154 2.0 2.0 0.00 0.00 0.00 47 1015.8
20240224002554 75 181 3.0 5.0 0.00 0.00 0.00 46 1015.8
20240224002054 76 134 2.0 5.0 0.00 0.00 0.00 44 1015.7
20240224001553 78 188 2.0 6.0 0.00 0.00 0.00 36 1015.8
20240224001053 78 125 2.0 6.0 0.00 0.00 0.00 30 1015.6
20240224000554 78 97 2.0 7.0 0.00 0.00 0.00 29 1015.6
20240223235555 78 0 1.0 4.0 0.00 0.00 0.00 30 1015.4
20240223235053 79 40 2.0 5.0 0.00 0.00 0.00 30 1015.5
20240223234552 79 52 2.0 5.0 0.00 0.00 0.00 29 1015.4
20240223234051 79 76 3.0 5.0 0.00 0.00 0.00 30 1015.5
20240223233552 79 66 2.0 5.0 0.00 0.00 0.00 29 1015.4
20240223232558 80 27 3.0 5.0 0.00 0.00 0.00 30 1015.3
20240223232048 80 47 3.0 5.0 0.00 0.00 0.00 30 1015.3
20240223230553 80 338 2.0 4.0 0.00 0.00 0.00 30 1015.2
20240223230049 80 332 2.0 4.0 0.00 0.00 0.00 30 1015.2
20240223225552 80 31 2.0 8.0 0.00 0.00 0.00 31 1015.2
20240223224553 80 27 4.0 9.0 0.00 0.00 0.00 31 1015.2
20240223223553 81 65 2.0 9.0 0.00 0.00 0.00 29 1015.0
20240223223045 81 305 2.0 6.0 0.00 0.00 0.00 29 1015.1
20240223222042 80 8 3.0 9.0 0.00 0.00 0.00 30 1015.0
20240223221548 80 324 3.0 9.0 0.00 0.00 0.00 30 1015.0
20240223221038 80 32 4.0 9.0 0.00 0.00 0.00 29 1015.0
20240223220039 80 29 4.0 11.0 0.00 0.00 0.00 30 1015.2
20240223215040 80 23 4.0 8.0 0.00 0.00 0.00 32 1015.2
20240223214539 80 49 4.0 8.0 0.00 0.00 0.00 30 1015.1
20240223213539 80 20 4.0 7.0 0.00 0.00 0.00 30 1015.0
20240223213040 80 358 3.0 7.0 0.00 0.00 0.00 30 1015.0
20240223212538 80 315 3.0 11.0 0.00 0.00 0.00 30 1015.0
20240223212040 80 7 3.0 11.0 0.00 0.00 0.00 31 1015.1
20240223211539 80 342 4.0 9.0 0.00 0.00 0.00 29 1015.3
20240223211037 80 350 4.0 9.0 0.00 0.00 0.00 31 1015.2
20240223210038 80 31 4.0 9.0 0.00 0.00 0.00 30 1015.1
20240223205538 80 8 4.0 7.0 0.00 0.00 0.00 31 1015.2
20240223205038 80 356 4.0 7.0 0.00 0.00 0.00 32 1015.2
20240223204538 80 15 4.0 10.0 0.00 0.00 0.00 31 1015.4
20240223204039 80 347 4.0 10.0 0.00 0.00 0.00 31 1015.3
20240223203539 80 74 3.0 7.0 0.00 0.00 0.00 31 1015.4
20240223203036 80 33 4.0 8.0 0.00 0.00 0.00 31 1015.3
20240223202535 80 3 4.0 8.0 0.00 0.00 0.00 31 1015.4
20240223202036 80 35 3.0 7.0 0.00 0.00 0.00 32 1015.5
20240223201536 80 27 3.0 11.0 0.00 0.00 0.00 33 1015.4
20240223201033 79 22 4.0 11.0 0.00 0.00 0.00 34 1015.5
20240223200532 79 352 4.0 9.0 0.00 0.00 0.00 33 1015.6
20240223200032 79 358 4.0 9.0 0.00 0.00 0.00 34 1015.8
20240223195530 78 23 3.0 6.0 0.00 0.00 0.00 35 1015.8
20240223195030 78 74 4.0 9.0 0.00 0.00 0.00 35 1015.8
20240223194527 78 49 4.0 9.0 0.00 0.00 0.00 35 1015.9
20240223194028 78 25 5.0 9.0 0.00 0.00 0.00 35 1015.8
20240223193027 79 359 3.0 8.0 0.00 0.00 0.00 36 1016.0
20240223192527 78 61 4.0 9.0 0.00 0.00 0.00 36 1016.0
20240223192040 78 20 4.0 9.0 0.00 0.00 0.00 36 1016.1
20240223191527 78 327 4.0 9.0 0.00 0.00 0.00 35 1016.1
20240223191027 78 40 4.0 11.0 0.00 0.00 0.00 36 1016.2
20240223190527 78 18 4.0 11.0 0.00 0.00 0.00 37 1016.4
20240223190025 77 44 4.0 9.0 0.00 0.00 0.00 37 1016.4
20240223185025 77 2 4.0 10.0 0.00 0.00 0.00 38 1016.5
20240223184522 77 49 5.0 10.0 0.00 0.00 0.00 36 1016.5
20240223184016 77 63 5.0 9.0 0.00 0.00 0.00 38 1016.6
20240223183515 76 37 5.0 12.0 0.00 0.00 0.00 40 1016.7
20240223183016 76 42 5.0 12.0 0.00 0.00 0.00 39 1016.7
20240223182519 76 79 6.0 12.0 0.00 0.00 0.00 39 1016.8
20240223182021 76 336 6.0 10.0 0.00 0.00 0.00 40 1016.8
20240223181516 76 59 6.0 10.0 0.00 0.00 0.00 39 1016.8
20240223181017 75 240 5.0 10.0 0.00 0.00 0.00 40 1016.9
20240223180529 75 49 5.0 12.0 0.00 0.00 0.00 43 1017.1
20240223180024 74 45 6.0 12.0 0.00 0.00 0.00 42 1017.2
20240223175529 75 34 6.0 12.0 0.00 0.00 0.00 42 1017.2
20240223175018 75 41 6.0 12.0 0.00 0.00 0.00 42 1017.3
20240223174517 75 30 5.0 10.0 0.00 0.00 0.00 43 1017.4
20240223173514 74 48 6.0 11.0 0.00 0.00 0.00 43 1017.3
20240223173011 73 52 6.0 12.0 0.00 0.00 0.00 48 1017.6
20240223172508 73 27 6.0 12.0 0.00 0.00 0.00 46 1017.7
20240223172011 73 13 6.0 12.0 0.00 0.00 0.00 48 1017.7